Location: Warszawa
(52.2500°N, 21.0000°E)
Time: 16:50:42
(UTC+01:00)

Explorer 11/Cluster Stage 4 - All Passes

Search period start: 29 January 2023 00:00
Search period end: 08 February 2023 00:00
Orbit: 466 x 1244 km, 28.8° (Epoch: 28 January)

Date Brightness Start Highest point End Pass type
(mag) Time Alt. Az. Time Alt. Az. Time Alt. Az.
01 Feb - 06:24:48 10° S 06:25:09 10° S 06:25:29 10° S visible
02 Feb - 06:09:56 10° S 06:11:32 11° S 06:13:08 10° SSE visible
02 Feb - 07:58:06 10° SSW 07:58:46 10° S 07:59:25 10° S daylight
03 Feb - 05:55:50 10° S 05:57:55 11° S 06:00:00 10° SSE visible
03 Feb - 07:44:28 10° SSW 07:45:09 10° S 07:45:49 10° S daylight
04 Feb - 05:41:58 10° SSW 05:44:17 11° S 05:46:36 10° SSE visible
05 Feb - 05:28:14 10° SSW 05:30:38 11° S 05:33:03 10° SSE visible
06 Feb - 05:14:39 10° SSW 05:16:58 11° S 05:19:20 10° SSE visible
07 Feb - 05:01:13 10° SSW 05:03:19 11° S 05:05:28 10° SSE visible
